Flag for Canada Weather past 2 weeks in Sherbrooke, Quebec, Canada

Now
1 °F

Clear.


Feels Like: -11 °F
Forecast: -12 / 8 °F
Wind: 7 mph from Southwest

Location: Sherbrooke

Current Time: Jan 25, 2015 at 7:55:23 PM

Latest Report: Jan 25, 2015 at 7:00 PM


Visibility: 9 mi

Pressure: 29.97 "Hg

Humidity: 78%

Dew point: -4 °F

Location of SherbrookeLocation

Historic Weather in Sherbrooke — Graph

°F

Sherbrooke temperature yesterday

Maximum temperature yesterday: 30 °F (at 3:00 PM)
Minimum temperature yesterday: 14 °F (at 8:00 AM)
Average temperature yesterday: 24 °F

Past Weeks' High & Low Weather Summary

 TemperatureHumidityPressure
High43 °F (Jan 18, 4:00 PM)100% (Jan 12, 1:04 PM)30.78 "Hg (Jan 12, 1:04 PM)
Low-20 °F (Jan 14, 5:00 AM)48% (Jan 18, 1:00 AM)29.24 "Hg (Jan 25, 12:00 AM)
Average12 °F80%30.04 "Hg
* Reported Jan 10 6:00 PM — Jan 25 6:00 PM, Sherbrooke, Weather by CustomWeather, © 2014

Note: Actual official high and low records may vary slightly from our data, if they occured in-between our weather recording intervals... More about our weather records

Advertising

Sherbrooke weather history for previous 24 hours

 ConditionsComfort  
Time TempWeatherWind HumidityBarometerVisibility
6:00 PM
Jan 25
3 °FClear.8 mph72%29.93 "Hg9 mi
5:00 PM5 °FClear.12 mph72%29.87 "Hg9 mi
4:00 PM7 °FPassing clouds.12 mph66%29.83 "Hg9 mi
3:00 PM7 °FOvercast.17 mph66%29.79 "Hg9 mi
2:00 PM7 °FOvercast.18 mph66%29.75 "Hg7 mi
1:00 PM7 °FLight snow. Mostly cloudy.23 mph72%29.72 "Hg3 mi
12:01 PM7 °FLight snow. Mostly cloudy.20 mph78%29.70 "Hg3 mi
11:01 AM7 °FOvercast.15 mph72%29.67 "Hg6 mi
10:04 AM7 °FLight snow. Partly sunny.20 mph78%29.65 "Hg5 mi
10:00 AM7 °FLight snow. Partly sunny.18 mph78%29.66 "Hg7 mi
9:51 AM9 °FLight snow. Partly sunny.15 mph72%29.65 "Hg9 mi
9:00 AM7 °FLight snow. Passing clouds.16 mph72%29.62 "Hg9 mi
8:00 AM9 °FSunny.12 mph78%29.56 "Hg9 mi
7:00 AM14 °FLight snow. Overcast.23 mph73%29.48 "Hg6 mi
6:55 AM14 °FLight snow. Overcast.22 mph79%29.48 "Hg3 mi
6:00 AM18 °FLight snow. Low clouds.13 mph86%29.41 "Hg1 mi
5:03 AM27 °FLight snow. Mostly cloudy.17 mph93%29.30 "Hg1 mi
5:01 AM27 °FLight snow. Overcast.15 mph93%29.31 "Hg1 mi
4:00 AM27 °FLight snow. Low clouds.12 mph93%29.28 "Hg2 mi
3:00 AM27 °FLight snow. Low clouds.13 mph93%29.26 "Hg2 mi
2:53 AM27 °FLight snow. Low clouds.12 mph93%29.26 "Hg2 mi
2:00 AM27 °FLight snow. Low clouds.9 mph93%29.26 "Hg2 mi
1:00 AM27 °FLight snow. Low clouds.14 mph93%29.24 "Hg2 mi
12:50 AM27 °FLight snow. Low clouds.15 mph93%29.24 "Hg2 mi
12:00 AM27 °FIce fog.12 mph93%29.24 "Hg3 mi
11:59 PM
Jan 24
27 °FIce fog.12 mph93%29.24 "Hg3 mi
11:00 PM27 °FLight snow. Low clouds.8 mph93%29.24 "Hg3 mi
10:00 PM25 °FLight snow. Low clouds.8 mph100%29.26 "Hg4 mi
9:00 PM27 °FLight snow. Overcast.6 mph86%29.29 "Hg3 mi
8:49 PM27 °FLight snow. Overcast.6 mph86%29.30 "Hg4 mi
8:00 PM27 °FMostly cloudy.6 mph86%29.31 "Hg9 mi
7:47 PM27 °FMostly cloudy.7 mph86%29.31 "Hg9 mi
7:00 PM27 °FOvercast.7 mph86%29.32 "Hg9 mi
Weather by CustomWeather, © 2014

See weather overviewHow to use our weather pages